www.pogodaiklimat.ru

Погода и климат >> Архив погоды >> Пакистан >> Chhor


ПОГОДА в Chhor

  • Прогноз погоды в Chhor
  • Монитор погоды в Chhor
  • Климат города

АРХИВ ПОГОДЫ в Chhor

Время (UTC), дата Ветер
(напр.,м/с)
 
Видим.   Явления Облачность Т
(С)
Тd
(С)
f
(%)
Тe
(С)
Тes
(С)
Комфортность P
(гПа)
Po
(гПа)
Тmin
(С)
Tmax
(С)
R
(мм)
R24
(мм)
S
(см)
21 10.10 штиль 0 4000 м ясно +25.0 +16.1 58 +28 +28 жарко 1008.3 1000.0
00 11.10 штиль 0 4000 м ясно +23.0 +15.6 63 +27 +27 душно 1007.8 1007.1
03 11.10 штиль 0 1000 м дымка ясно +24.0 +14.9 57 +27 +30 жарко 1009.6 1008.9 +20.1
06 11.10 С 1 4000 м ясно +35.0 +11.6 24 +35 +51 опасность
солнечного
удара
1009.8 1009.2
09 11.10 СВ 1 4000 м ясно +39.5 +11.6 19 +39 +54 опасность
солнечного
удара
1007.0 1000.0
12 11.10 ЮЗ 1 4000 м ясно +38.0 +15.3 26 +39 +41 очень
душно
1005.3 1004.7 +40.1
15 11.10 З 1 4000 м ясно +33.5 +15.2 33 +35 +35 душно 1006.7 1000.0
18 11.10 ЮЗ 1 4000 м ясно +27.5 +15.3 47 +30 +30 жарко 1009.2 1008.5
21 11.10 штиль 0 4000 м ясно +23.5 +14.3 56 +26 +26 жарко 1009.0 1009.0
00 12.10 штиль 0 4000 м ясно +21.0 +14.2 65 +24 +24 комфорт 1008.0 1007.3
03 12.10 штиль 0 4000 м ясно +23.5 +12.2 49 +25 +28 комфорт 1011.3 1010.6 +18.7
06 12.10 С 1 4000 м ясно +35.0 +14.1 29 +36 +52 опасность
солнечного
удара
1011.7 1011.1
09 12.10 штиль 0 4000 м ясно +39.5 +11.6 19 +39 +55 опасность
солнечного
удара
1009.4 1009.0
12 12.10 ЮЗ 1 4000 м ясно +38.0 +15.3 26 +39 +41 очень
душно
1006.9 1006.3 +40.3
15 12.10 ЮЗ 1 4000 м ясно +32.0 +14.1 34 +34 +34 душно 1008.4 1000.0
18 12.10 ЮЗ 1 4000 м ясно +27.0 +13.6 44 +29 +29 жарко 1010.5 1009.8
21 12.10 ЮЗ 1 4000 м ясно +23.0 +13.6 55 +26 +26 жарко 1010.1 1010.0
00 13.10 штиль 0 4000 м ясно +20.5 +13.6 65 +23 +23 комфорт 1010.7 1010.0
03 13.10 штиль 0 4000 м ясно +23.0 +12.6 52 +26 +29 жарко 1012.6 1012.0 +18.0
06 13.10 штиль 0 4000 м ясно +35.0 +16.3 33 +38 +55 опасность
солнечного
удара
1013.7 1013.1
09 13.10 штиль 0 4000 м ясно +39.5 +15.4 24 +41 +57 опасность
перегрева
1010.6 1000.0
12 13.10 ЮЗ 1 4000 м ясно +37.0 +16.0 29 +39 +40 очень
душно
1008.8 1008.2 +40.5
15 13.10 СВ 1 4000 м ясно +32.5 +16.9 39 +36 +36 очень
душно
1010.5 1000.0
18 13.10 С 1 4000 м ясно +28.0 +15.9 48 +31 +31 душно 1011.6 997.0
21 13.10 штиль 0 4000 м ясно +24.5 +15.5 57 +27 +27 жарко 1010.8 1000.0
00 14.10 штиль 0 4000 м ясно +21.0 +14.2 65 +24 +24 комфорт 1010.2 1009.5
03 14.10 штиль 0 4000 м ясно +22.0 +14.4 62 +25 +28 комфорт 1012.5 1011.9 +18.5
06 14.10 З 1 4000 м ясно +33.5 +16.3 36 +36 +52 опасность
солнечного
удара
1012.8 1012.2
09 14.10 ЮЗ 1 4000 м ясно +38.5 +16.1 27 +40 +55 опасность
солнечного
удара
1010.6 1000.0
12 14.10 З 2 4000 м ясно +36.5 +15.2 28 +38 +39 очень
душно
1008.3 996.3 +39.6
15 14.10 З 1 4000 м ясно +30.5 +15.2 40 +33 +33 душно 1009.6 1000.0
18 14.10 штиль 0 4000 м ясно +25.5 +14.4 50 +28 +28 жарко 1010.6 1009.9
21 14.10 ЮЗ 2 4000 м ясно +23.0 +16.5 67 +28 +28 душно 1010.5 1011.0
00 15.10 ЮЗ 1 4000 м ясно +20.5 +14.6 69 +24 +24 комфорт 1009.9 1009.2
03 15.10 ЮЗ 3 4000 м 9/9 600 м
[St]
+25.0 +22.0 83 +32 +32 очень
душно
1012.3 1011.6 +20.0
06 15.10 ЮЗ 1 4000 м 5/0
[Ci fib]
+32.5 +22.6 56 +42 +56 опасность
перегрева
1012.5 1011.9
09 15.10 ЮЗ 1 4000 м 6/0
[Ac trans Ci fib]
+36.0 +20.6 41 +43 +52 опасность
перегрева
1009.4 1000.0
12 15.10 ЮЗ 1 4000 м 6/0
[Ac trans]
+35.5 +18.0 36 +39 +40 очень
душно
1007.9 1007.3 +37.1
15 15.10 ЮЗ 1 4000 м 6/0
[Ac trans Ci fib]
+30.5 +20.9 57 +38 +38 очень
душно
1009.8 1000.0
18 15.10 ЮЗ 1 4000 м ясно +25.5 +18.5 65 +30 +30 душно 1011.6 997.1
21 15.10 ЮЗ 1 4000 м ясно +23.0 +16.5 67 +28 +28 душно 1010.8 1000.0
00 16.10 штиль 0 4000 м ясно +20.0 +14.9 72 +22 +22 комфорт 1010.5 1009.8
03 16.10 штиль 0 2000 м дымка 6/0
[Ac trans Ci fib]
+25.0 +22.0 83 +32 +34 очень
душно
1012.3 1011.6 +19.9
06 16.10 З 1 4000 м 6/0
[Ac trans Ci fib]
+32.5 +23.2 58 +43 +56 опасность
перегрева
1012.9 1012.3
09 16.10 ЮЗ 1 4000 м 5/0
[Ac trans Ci fib]
+37.0 +21.9 42 +45 +57 опасность
перегрева
1009.6 1000.0
12 16.10 З 1 4000 м 6/0
[Ci fib]
+35.0 +21.7 46 +43 +44 опасность
перегрева
1007.9 1007.3 +37.4
15 16.10 штиль 0 4000 м 1/0
[Ac trans]
+30.0 +21.1 59 +38 +38 очень
душно
1010.1 1000.0
18 16.10 ЮЗ 1 4000 м 3/0
[Ac trans]
+27.0 +20.2 66 +33 +33 очень
душно
1011.4 997.2
21 16.10 ЮЗ 1 4000 м ясно +25.0 +19.6 72 +30 +30 душно 1010.6 1000.0
00 17.10 штиль 0 4000 м ясно +23.0 +19.1 79 +29 +29 очень
душно
1010.0 1009.3
03 17.10 ЮЗ 1 <100 м туман ?/? +25.0 +23.5 91 +34 +34 очень
душно
1011.9 1011.2 +21.5
06 17.10 ЮЗ 1 <100 м туман ?/? +25.0 +23.5 91 +34 +34 очень
душно
1011.9 1011.2 +21.5
09 17.10 З 2 4000 м ясно +37.0 +21.0 40 +44 +55 опасность
перегрева
1009.1 1009.0
12 17.10 ЮЗ 1 4000 м ясно +35.5 +18.0 36 +39 +41 очень
душно
1007.4 1006.8 +38.5
15 17.10 ЮЗ 1 4000 м ясно +29.5 +18.8 53 +35 +35 очень
душно
1008.9 1000.0

 

Местоположение метеостанции Chhor (Пакистан): широта 25.52 долгота 69.78 высота над уровнем моря 6 м.

В архиве по умолчанию представлена погода в Chhor за последнюю неделю. Архивные данные за месяц целиком и за предыдущие месяцы, начиная с января 2011 года, Вы можете получить, выбрав интересующий диапазон дат из раскрывающегося списка и нажав кнопку "Ввод!".


*Определитесь, кто Вы:
робот инопланетянин человек

Внимание! Время в таблицах - всемирное. Для получения местного времени необходимо прибавить поправку, которая в Chhor равна 5 ч.

Смотрите также архив погоды в соседних городах и на ближайших метеорологических станциях:

Погода в Badin (Пакистан) (133 км)
Погода в Hyderabad (Пакистан) (137 км)
Погода в Sakrand (Пакистан) (158 км)
Погода в Barmer (Rajasthan, Индия) (162 км)
Погода в Nawabshah (Пакистан) (163 км)
Погода в Jaisalmer (Rajasthan, Индия) (191 км)
Погода в Pad Idan (Пакистан) (221 км)
Погода в Bhuj-Rudramata (Gujarat, Индия) (253 км)
Погода в Rohri (Пакистан) (255 км)
Погода в Naliya (Gujarat, Индия) (269 км)

Пояснения к столбцам:

Ветер - указаны скорость ветра в м/с - средняя за 10 мин, порывы в срок и между сроками (в фигурных скобках) и направление, откуда дует ветер: С - северный, СВ - северо-восточный, В - восточный, ЮВ - юго-восточный, Ю - южный, ЮЗ - юго-западный, З - западный, СЗ - северо-западный.
Видимость - горизонтальная дальность видимости в метрах или километрах. При видимости от 1 до 10 км при отсутствии осадков обычно наблюдается дымка, при ухудшении видимости до 1 км и менее - туман. В сухую погоду видимость может ухудшаться дымом, пылью или мглою.
Явления - указаны атмосферные явления, наблюдавшиеся в срок или в последний час перед сроком; фигурными скобками обозначены явления, наблюдавшиеся между сроками (за 1-3 часа до срока); квадратными скобками обозначены град или гололедные отложения с указанием их диаметра в мм.
Облачность - указаны через наклонную черту общая и нижняя облачность в баллах и высота нижней границы облаков в метрах; квадратными скобками обозначены формы облаков: Ci - перистые, Cs - перисто-слоистые, Cc - перисто-кучевые, Ac - высококучевые, As - высокослоистые, Sc - слоисто-кучевые, Ns - слоисто-дождевые, Cu - кучевые, Cb - кучево-дождевые. Подробнее классификацию облаков см. в Атласе облаков (PDF).
T - Температура воздуха - температура, измеренная на высоте 2 м над землей.
Td - Температура точки росы - температура, при понижении до которой содержащийся в воздухе водяной пар достигнет насыщения.
f - Относительная влажность воздуха - влажноcть воздуха, измеренная на высоте 2 м над землей.
Te - Эффективная температура - температура, которую ощущает одетый по сезону человек в тени. Характеристика душности погоды. При расчете учитывается влияние влажности воздуха и скорости ветра на теплоощущения человека.
Tes - Эффективная температура на солнце - температура, которую ощущает человек, с поправкой на солнечный нагрев. Характеристика знойности погоды. Зависит от высоты солнца над горизонтом, облачности и скорости ветра. Ночью, в пасмурную погоду, а также при ветре 12 м/с и более поправка равна нулю.
P - Атмосферное давление - приведенное к уровню моря атмосферное давление.
Po - Атмосферное давление - измеренное на уровне метеостанции атмосферное давление.
Tmin - Минимальная температура - минимум температуры воздуха на высоте 2 м над землей.
Tmax - Максимальная температура - максимум температуры воздуха на высоте 2 м над землей.
R - Количество осадков - Количество выпавших осадков за период времени, мм. При наведении курсора мыши на число - период времени, за который выпало указанное количество осадков.
R24 - Количество осадков - Количество выпавших осадков за 24 часа, мм.
S - Снежный покров - Высота снежного покрова, см. При наведении курсора мыши на число - состояние снежного покрова и степень покрытия местности в баллах.